TimeEDT,TemperatureF,Dew PointF,Humidity,Sea Level PressureIn,VisibilityMPH,Wind Direction,Wind SpeedMPH,Gust SpeedMPH,PrecipitationIn,Events,Conditions,WindDirDegrees,DateUTC
12:15 AM,62.6,57.2,82,30.17,10.0,East,9.2,-,N/A,,Overcast,80,2012-10-25 04:15:00
12:35 AM,62.6,57.2,82,30.17,10.0,ENE,6.9,-,N/A,,Overcast,70,2012-10-25 04:35:00
12:55 AM,60.8,57.2,88,30.18,10.0,ENE,6.9,-,N/A,,Overcast,60,2012-10-25 04:55:00
1:35 AM,60.8,57.2,88,30.19,10.0,NE,6.9,-,N/A,,Overcast,50,2012-10-25 05:35:00
1:55 AM,62.6,57.2,82,30.20,10.0,ENE,4.6,-,N/A,,Overcast,60,2012-10-25 05:55:00
2:15 AM,60.8,57.2,88,30.20,10.0,NE,5.8,-,N/A,,Overcast,50,2012-10-25 06:15:00
2:35 AM,60.8,57.2,88,30.19,10.0,ENE,5.8,-,N/A,,Overcast,70,2012-10-25 06:35:00
2:55 AM,60.8,57.2,88,30.19,10.0,ESE,5.8,-,N/A,,Overcast,110,2012-10-25 06:55:00
3:35 AM,60.8,57.2,88,30.18,10.0,ENE,5.8,-,N/A,,Overcast,70,2012-10-25 07:35:00
3:55 AM,62.6,57.2,82,30.18,10.0,East,6.9,-,N/A,,Overcast,90,2012-10-25 07:55:00
4:15 AM,60.8,57.2,88,30.18,10.0,East,5.8,-,N/A,,Overcast,80,2012-10-25 08:15:00
4:35 AM,60.8,55.4,82,30.18,10.0,East,6.9,-,N/A,,Overcast,90,2012-10-25 08:35:00
4:55 AM,60.8,55.4,82,30.18,10.0,ENE,5.8,-,N/A,,Overcast,70,2012-10-25 08:55:00
5:15 AM,60.8,55.4,82,30.18,10.0,East,8.1,-,N/A,,Overcast,90,2012-10-25 09:15:00
5:35 AM,60.8,55.4,82,30.19,9.0,ENE,5.8,-,N/A,,Overcast,70,2012-10-25 09:35:00
5:55 AM,60.8,55.4,82,30.20,10.0,ENE,5.8,-,N/A,,Overcast,60,2012-10-25 09:55:00
6:15 AM,60.8,55.4,82,30.20,10.0,ENE,4.6,-,N/A,,Overcast,70,2012-10-25 10:15:00
6:35 AM,60.8,57.2,88,30.20,10.0,East,5.8,-,N/A,,Overcast,80,2012-10-25 10:35:00
6:55 AM,60.8,57.2,88,30.21,10.0,NE,4.6,-,N/A,,Overcast,50,2012-10-25 10:55:00
7:15 AM,60.8,57.2,88,30.21,10.0,East,5.8,-,N/A,,Overcast,80,2012-10-25 11:15:00
8:15 AM,62.6,57.2,82,30.23,10.0,NE,5.8,-,N/A,,Overcast,50,2012-10-25 12:15:00
8:35 AM,62.6,57.2,82,30.23,10.0,NE,6.9,-,N/A,,Overcast,50,2012-10-25 12:35:00
8:55 AM,62.6,57.2,82,30.24,10.0,ENE,6.9,-,N/A,,Overcast,60,2012-10-25 12:55:00
9:35 AM,62.6,57.2,82,30.24,10.0,East,8.1,-,N/A,,Overcast,80,2012-10-25 13:35:00
9:55 AM,62.6,57.2,82,30.24,10.0,East,9.2,-,N/A,,Overcast,80,2012-10-25 13:55:00
10:15 AM,64.4,57.2,77,30.24,10.0,ENE,6.9,-,N/A,,Overcast,70,2012-10-25 14:15:00
10:35 AM,64.4,57.2,77,30.24,10.0,East,8.1,-,N/A,,Overcast,80,2012-10-25 14:35:00
10:55 AM,64.4,57.2,77,30.24,10.0,East,6.9,-,N/A,,Overcast,90,2012-10-25 14:55:00
11:15 AM,64.4,57.2,77,30.24,10.0,ESE,8.1,-,N/A,,Overcast,110,2012-10-25 15:15:00
11:55 AM,64.4,57.2,77,30.24,10.0,East,8.1,-,N/A,,Overcast,100,2012-10-25 15:55:00
12:15 PM,64.4,57.2,77,30.24,10.0,SE,8.1,-,N/A,,Overcast,130,2012-10-25 16:15:00
12:35 PM,64.4,57.2,77,30.23,10.0,East,6.9,-,N/A,,Overcast,90,2012-10-25 16:35:00
12:55 PM,64.4,59.0,83,30.23,10.0,East,6.9,-,N/A,,Overcast,80,2012-10-25 16:55:00
1:15 PM,64.4,57.2,77,30.23,10.0,ESE,8.1,-,N/A,,Overcast,120,2012-10-25 17:15:00
1:35 PM,64.4,57.2,77,30.23,9.0,East,9.2,-,N/A,,Overcast,90,2012-10-25 17:35:00
1:55 PM,64.4,57.2,77,30.22,10.0,ENE,8.1,-,N/A,,Overcast,60,2012-10-25 17:55:00
2:15 PM,64.4,57.2,77,30.21,10.0,East,8.1,-,N/A,,Overcast,90,2012-10-25 18:15:00
2:35 PM,64.4,57.2,77,30.22,10.0,East,5.8,-,N/A,,Overcast,100,2012-10-25 18:35:00
2:55 PM,64.4,57.2,77,30.22,10.0,East,5.8,-,N/A,,Overcast,80,2012-10-25 18:55:00
3:15 PM,64.4,57.2,77,30.23,10.0,East,8.1,-,N/A,,Overcast,90,2012-10-25 19:15:00
3:35 PM,64.4,57.2,77,30.23,10.0,East,5.8,-,N/A,,Overcast,90,2012-10-25 19:35:00
3:55 PM,64.4,57.2,77,30.23,10.0,East,6.9,-,N/A,,Overcast,80,2012-10-25 19:55:00
4:15 PM,64.4,57.2,77,30.22,10.0,ENE,6.9,-,N/A,,Overcast,60,2012-10-25 20:15:00
4:35 PM,64.4,57.2,77,30.22,10.0,ENE,8.1,-,N/A,,Overcast,70,2012-10-25 20:35:00
4:55 PM,64.4,57.2,77,30.22,10.0,East,9.2,-,N/A,,Overcast,90,2012-10-25 20:55:00
5:15 PM,64.4,57.2,77,30.22,10.0,East,8.1,-,N/A,,Overcast,80,2012-10-25 21:15:00
5:35 PM,62.6,57.2,82,30.22,10.0,ENE,9.2,-,N/A,,Overcast,60,2012-10-25 21:35:00
5:55 PM,62.6,57.2,82,30.23,10.0,ENE,10.4,-,N/A,,Overcast,70,2012-10-25 21:55:00
6:15 PM,62.6,57.2,82,30.23,10.0,ENE,8.1,-,N/A,,Overcast,60,2012-10-25 22:15:00
6:35 PM,62.6,57.2,82,30.23,10.0,East,6.9,-,N/A,,Overcast,80,2012-10-25 22:35:00
6:55 PM,62.6,57.2,82,30.24,10.0,ENE,8.1,-,N/A,,Overcast,70,2012-10-25 22:55:00
7:15 PM,62.6,57.2,82,30.24,10.0,East,10.4,-,N/A,,Overcast,80,2012-10-25 23:15:00
7:35 PM,62.6,57.2,82,30.24,10.0,ENE,8.1,-,N/A,,Overcast,70,2012-10-25 23:35:00
7:55 PM,62.6,59.0,88,30.24,10.0,ENE,5.8,-,N/A,,Overcast,70,2012-10-25 23:55:00
8:15 PM,62.6,59.0,88,30.24,10.0,ENE,5.8,-,N/A,,Overcast,70,2012-10-26 00:15:00
8:35 PM,62.6,59.0,88,30.23,10.0,East,4.6,-,N/A,,Overcast,80,2012-10-26 00:35:00
8:55 PM,62.6,59.0,88,30.23,10.0,ENE,5.8,-,N/A,,Overcast,70,2012-10-26 00:55:00
9:15 PM,62.6,57.2,82,30.23,10.0,East,5.8,-,N/A,,Overcast,80,2012-10-26 01:15:00
9:35 PM,62.6,57.2,82,30.22,10.0,East,4.6,-,N/A,,Overcast,80,2012-10-26 01:35:00
9:55 PM,62.6,57.2,82,30.22,10.0,East,4.6,-,N/A,,Overcast,80,2012-10-26 01:55:00
10:15 PM,62.6,59.0,88,30.22,10.0,ENE,5.8,-,N/A,,Overcast,70,2012-10-26 02:15:00
10:35 PM,62.6,59.0,88,30.21,10.0,ENE,6.9,-,N/A,,Overcast,70,2012-10-26 02:35:00
10:55 PM,62.6,59.0,88,30.21,10.0,ENE,5.8,-,N/A,,Overcast,70,2012-10-26 02:55:00
11:15 PM,62.6,59.0,88,30.21,10.0,ENE,3.5,-,N/A,,Overcast,70,2012-10-26 03:15:00
11:35 PM,62.6,59.0,88,30.21,10.0,ENE,3.5,-,N/A,,Overcast,70,2012-10-26 03:35:00
11:55 PM,62.6,59.0,88,30.20,10.0,ENE,4.6,-,N/A,,Overcast,70,2012-10-26 03:55:00